Time,TemperatureF,DewpointF,PressureIn,WindDirection,WindDirectionDegrees,WindSpeedMPH,WindSpeedGustMPH,Humidity,HourlyPrecipIn,Conditions,Clouds,dailyrainin,SolarRadiationWatts/m^2,SoftwareType,DateUTC
2013-07-20 00:00:00,77.0,70.0,-100.00,West,270,5.0,-999.0,81,0.01,,,-99.99,0.000000,,2013-07-20 04:00:00,
2013-07-20 00:44:00,77.0,70.0,-100.00,West,270,5.0,-999.0,81,0.01,,,-99.99,0.000000,,2013-07-20 04:44:00,
2013-07-20 00:52:00,77.0,70.0,-100.00,West,270,5.0,-999.0,81,0.01,,,-99.99,0.000000,,2013-07-20 04:52:00,
2013-07-20 01:00:00,76.0,70.0,-100.00,West,270,6.0,-999.0,81,-99.99,,,-99.99,0.000000,,2013-07-20 05:00:00,
2013-07-20 01:32:00,76.0,70.0,-100.00,West,270,6.0,-999.0,81,-99.99,,,-99.99,0.000000,,2013-07-20 05:32:00,
2013-07-20 01:52:00,76.0,70.0,-100.00,West,270,6.0,-999.0,81,-99.99,,,-99.99,0.000000,,2013-07-20 05:52:00,
2013-07-20 02:00:00,76.0,66.0,-100.00,West,270,6.0,-999.0,72,-99.99,,,-99.99,0.000000,,2013-07-20 06:00:00,
2013-07-20 02:43:00,76.0,66.0,-100.00,West,270,6.0,-999.0,72,-99.99,,,-99.99,0.000000,,2013-07-20 06:43:00,
2013-07-20 02:52:00,76.0,66.0,-100.00,West,270,6.0,-999.0,72,-99.99,,,-99.99,0.000000,,2013-07-20 06:52:00,
2013-07-20 04:00:00,74.0,68.0,-100.00,West,270,3.0,-999.0,80,-99.99,,,-99.99,0.000000,,2013-07-20 08:00:00,
2013-07-20 04:44:00,74.0,68.0,-100.00,West,270,3.0,-999.0,80,-99.99,,,-99.99,0.000000,,2013-07-20 08:44:00,
2013-07-20 04:52:00,74.0,68.0,-100.00,West,270,3.0,-999.0,80,-99.99,,,-99.99,0.000000,,2013-07-20 08:52:00,
2013-07-20 05:00:00,72.0,67.0,-100.00,West,270,2.0,-999.0,84,-99.99,,,-99.99,0.000000,,2013-07-20 09:00:00,
2013-07-20 05:33:00,72.0,67.0,-100.00,West,270,2.0,-999.0,84,-99.99,,,-99.99,0.000000,,2013-07-20 09:33:00,
2013-07-20 05:43:00,72.0,67.0,-100.00,West,270,2.0,-999.0,84,-99.99,,,-99.99,0.000000,,2013-07-20 09:43:00,
2013-07-20 05:53:00,72.0,67.0,-100.00,West,270,2.0,-999.0,84,-99.99,,,-99.99,0.000000,,2013-07-20 09:53:00,
2013-07-20 06:00:00,70.0,67.0,-100.00,West,270,1.0,-999.0,87,-99.99,,,-99.99,0.000000,,2013-07-20 10:00:00,
2013-07-20 06:42:00,70.0,67.0,-100.00,West,270,1.0,-999.0,87,-99.99,,,-99.99,0.000000,,2013-07-20 10:42:00,
2013-07-20 06:52:00,70.0,67.0,-100.00,West,270,1.0,-999.0,87,-99.99,,,-99.99,0.000000,,2013-07-20 10:52:00,
2013-07-20 08:00:00,72.0,68.0,-100.00,North,0,3.0,-999.0,87,-99.99,,,-99.99,120.639999,,2013-07-20 12:00:00,
2013-07-20 08:52:00,72.0,68.0,-100.00,North,0,3.0,-999.0,87,-99.99,,,-99.99,120.639999,,2013-07-20 12:52:00,
2013-07-20 09:00:00,75.0,65.0,-100.00,NE,45,4.0,-999.0,70,-99.99,,,-99.99,288.839996,,2013-07-20 13:00:00,
2013-07-20 09:43:00,75.0,65.0,-100.00,NE,45,4.0,-999.0,70,-99.99,,,-99.99,288.839996,,2013-07-20 13:43:00,
2013-07-20 09:53:00,75.0,65.0,-100.00,NE,45,4.0,-999.0,70,-99.99,,,-99.99,288.839996,,2013-07-20 13:53:00,
2013-07-20 10:00:00,79.0,64.0,-100.00,NE,45,4.0,-999.0,61,-99.99,,,-99.99,457.040009,,2013-07-20 14:00:00,
2013-07-20 10:43:00,79.0,64.0,-100.00,NE,45,4.0,-999.0,61,-99.99,,,-99.99,457.040009,,2013-07-20 14:43:00,
2013-07-20 10:53:00,79.0,64.0,-100.00,NE,45,4.0,-999.0,61,-99.99,,,-99.99,457.040009,,2013-07-20 14:53:00,
2013-07-20 11:00:00,81.0,63.0,-100.00,NE,45,4.0,-999.0,54,-99.99,,,-99.99,610.159973,,2013-07-20 15:00:00,
2013-07-20 11:44:00,81.0,63.0,-100.00,NE,45,4.0,-999.0,54,-99.99,,,-99.99,610.159973,,2013-07-20 15:44:00,
2013-07-20 11:53:00,81.0,63.0,-100.00,NE,45,4.0,-999.0,54,-99.99,,,-99.99,610.159973,,2013-07-20 15:53:00,
2013-07-20 12:00:00,82.0,61.0,-100.00,ENE,67,4.0,-999.0,49,-99.99,,,-99.99,648.440002,,2013-07-20 16:00:00,
2013-07-20 12:44:00,82.0,61.0,-100.00,ENE,67,4.0,-999.0,49,-99.99,,,-99.99,648.440002,,2013-07-20 16:44:00,
2013-07-20 12:52:00,82.0,61.0,-100.00,ENE,67,4.0,-999.0,49,-99.99,,,-99.99,648.440002,,2013-07-20 16:52:00,
2013-07-20 13:00:00,85.0,61.0,-100.00,NNE,22,2.0,-999.0,44,-99.99,,,-99.99,788.799988,,2013-07-20 17:00:00,
2013-07-20 13:32:00,85.0,61.0,-100.00,NNE,22,2.0,-999.0,44,-99.99,,,-99.99,788.799988,,2013-07-20 17:32:00,
2013-07-20 13:43:00,85.0,61.0,-100.00,NNE,22,2.0,-999.0,44,-99.99,,,-99.99,788.799988,,2013-07-20 17:43:00,
2013-07-20 13:53:00,85.0,61.0,-100.00,NNE,22,2.0,-999.0,44,-99.99,,,-99.99,788.799988,,2013-07-20 17:53:00,
2013-07-20 14:38:00,85.0,62.0,-100.00,NW,315,3.0,-999.0,46,-99.99,,,-99.99,730.799988,,2013-07-20 18:38:00,
2013-07-20 14:47:00,85.0,62.0,-100.00,NW,315,3.0,-999.0,46,-99.99,,,-99.99,730.799988,,2013-07-20 18:47:00,
2013-07-20 14:59:00,85.0,62.0,-100.00,NW,315,3.0,-999.0,46,-99.99,,,-99.99,730.799988,,2013-07-20 18:59:00,
2013-07-20 15:00:00,86.0,64.0,-100.00,NW,315,4.0,-999.0,48,-99.99,,,-99.99,812.000000,,2013-07-20 19:00:00,
2013-07-20 15:35:00,86.0,64.0,-100.00,NW,315,4.0,-999.0,48,-99.99,,,-99.99,812.000000,,2013-07-20 19:35:00,
2013-07-20 15:44:00,86.0,64.0,-100.00,NW,315,4.0,-999.0,48,-99.99,,,-99.99,812.000000,,2013-07-20 19:44:00,
2013-07-20 15:57:00,86.0,64.0,-100.00,NW,315,4.0,-999.0,48,-99.99,,,-99.99,812.000000,,2013-07-20 19:57:00,
2013-07-20 16:47:00,85.0,61.0,-100.00,NW,315,6.0,-999.0,43,-99.99,,,-99.99,800.400024,,2013-07-20 20:47:00,
2013-07-20 16:58:00,85.0,61.0,-100.00,NW,315,6.0,-999.0,43,-99.99,,,-99.99,800.400024,,2013-07-20 20:58:00,
2013-07-20 17:00:00,85.0,61.0,-100.00,NW,315,5.0,-999.0,44,-99.99,,,-99.99,696.000000,,2013-07-20 21:00:00,
2013-07-20 17:48:00,85.0,61.0,-100.00,NW,315,5.0,-999.0,44,-99.99,,,-99.99,696.000000,,2013-07-20 21:48:00,
2013-07-20 18:00:00,84.0,61.0,-100.00,NW,315,5.0,-999.0,46,-99.99,,,-99.99,554.479980,,2013-07-20 22:00:00,
2013-07-20 18:50:00,84.0,61.0,-100.00,NW,315,5.0,-999.0,46,-99.99,,,-99.99,554.479980,,2013-07-20 22:50:00,
2013-07-20 18:57:00,84.0,61.0,-100.00,NW,315,5.0,-999.0,46,-99.99,,,-99.99,554.479980,,2013-07-20 22:57:00,
2013-07-20 19:00:00,82.0,61.0,-100.00,NNW,337,4.0,-999.0,49,-99.99,,,-99.99,389.760010,,2013-07-20 23:00:00,
2013-07-20 19:40:00,82.0,61.0,-100.00,NNW,337,4.0,-999.0,49,-99.99,,,-99.99,389.760010,,2013-07-20 23:40:00,
2013-07-20 19:47:00,82.0,61.0,-100.00,NNW,337,4.0,-999.0,49,-99.99,,,-99.99,389.760010,,2013-07-20 23:47:00,
2013-07-20 19:57:00,82.0,61.0,-100.00,NNW,337,4.0,-999.0,49,-99.99,,,-99.99,389.760010,,2013-07-20 23:57:00,
2013-07-20 21:00:00,74.0,62.0,-100.00,NNW,337,2.0,-999.0,66,-99.99,,,-99.99,55.680000,,2013-07-21 01:00:00,
2013-07-20 21:37:00,74.0,62.0,-100.00,NNW,337,2.0,-999.0,66,-99.99,,,-99.99,55.680000,,2013-07-21 01:37:00,
2013-07-20 21:49:00,-999.0,-99.9,-100.00,NNW,337,2.0,-999.0,-999,-99.99,,,-99.99,,,2013-07-21 01:49:00,
2013-07-20 22:00:00,70.0,63.0,-100.00,NNW,337,1.0,-999.0,78,-99.99,,,-99.99,2.320000,,2013-07-21 02:00:00,
2013-07-20 22:47:00,70.0,63.0,-100.00,NNW,337,1.0,-999.0,78,-99.99,,,-99.99,2.320000,,2013-07-21 02:47:00,
2013-07-20 22:58:00,70.0,63.0,-100.00,NNW,337,1.0,-999.0,78,-99.99,,,-99.99,2.320000,,2013-07-21 02:58:00,
2013-07-20 23:00:00,68.0,62.0,-100.00,NNE,22,1.0,-999.0,82,-99.99,,,-99.99,0.000000,,2013-07-21 03:00:00,
2013-07-20 23:37:00,68.0,62.0,-100.00,NNE,22,1.0,-999.0,82,-99.99,,,-99.99,0.000000,,2013-07-21 03:37:00,
2013-07-20 23:47:00,68.0,62.0,-100.00,NNE,22,1.0,-999.0,82,-99.99,,,-99.99,0.000000,,2013-07-21 03:47:00,